Simultaneous Nadir Overpasses (SNOs) Predictions

Prediction of SNOs between AQUA and GOES-15 Satellite Orbit:

Table of predicted SNOs for the next 14.0 days since TLE Epoch: 6/16/2017
Index Date Time (AQUA) AQUA Lat,Lon GOES-15 Lat,Lon Distance(km) Time Diff (sec)
1 06/16/2017 22:47:06 -0.50,-137.85 0.05,-135.40 280.11 80
2 06/18/2017 22:34:54 0.15,-134.90 0.05,-135.42 59.40 80
3 06/20/2017 22:22:42 0.80,-131.94 0.05,-135.44 398.10 80
4 06/21/2017 10:43:57 0.27,-137.10 -0.06,-135.41 192.14 80
5 06/23/2017 10:31:44 -0.32,-134.13 -0.07,-135.42 145.44 80
6 06/23/2017 22:53:09 -0.75,-139.33 0.08,-135.45 441.43 80
7 06/25/2017 10:19:32 -0.99,-131.18 -0.06,-135.42 482.46 80
8 06/25/2017 22:40:56 -0.14,-136.37 0.08,-135.46 104.46 80
9 06/27/2017 22:28:44 0.53,-133.42 0.08,-135.46 232.37 80
10 06/28/2017 10:49:59 0.55,-138.57 -0.10,-135.42 357.75 80
11 06/30/2017 10:37:46 -0.06,-135.61 -0.09,-135.42 21.22 80




NCC Satellite Simultaneous Nadir Overpasses (SNOs) Prediction Service
